South Bend, IN

10:19 AM EDT on March 24, 2017 (GMT -0400)
South Bend Regional

Weather History for KSBN - April, 2014

Change the Weather History Date:

Sunday, April 13, 2014

  Actual Average Record
Temperature  
Mean Temperature 67 °F 48 °F  
Max Temperature 72 °F 59 °F 85 °F (1941)
Min Temperature 62 °F 38 °F 18 °F (1950)
Degree Days  
Heating Degree Days 0 17  
Month to date heating degree days 221 251  
Since 1 July heating degree days 6480 5795  
Cooling Degree Days 2 0  
Month to date cooling degree days 2 0  
Year to date cooling degree days 2 1  
Growing Degree Days 17 (Base 50)    
Moisture  
Dew Point 55 °F    
Average Humidity 71    
Maximum Humidity 84    
Minimum Humidity 57    
Precipitation  
Precipitation 0.05 in 0.11 in 1.23 in (1909)
Month to date precipitation 1.31 1.35  
Year to date precipitation 8.94 8.01  
Snow  
Snow 0.00 in 0.10 in 1.40 in (1962)
Month to date snowfall 1.0  
Since 1 July snowfall 66.2  
Snow Depth -    
Sea Level Pressure  
Sea Level Pressure 29.70 in    
Wind  
Wind Speed 15 mph (SSW)    
Max Wind Speed 29 mph    
Max Gust Speed 36 mph    
Visibility 10 miles    
Events Rain , Thunderstorm    
T = Trace of Precipitation, MM = Missing Value Source: NWS Daily Summary

Daily Weather History Graph

Daily Weather History Graph

Search for Another Location

Airport or City:

Trip Planner

Search our weather history database for the weather conditions in past years. The results will help you decide how hot, cold, wet, or windy it might be!

Date:

Astronomy

Apr. 13, 2014 Rise Set
Actual Time 7:08 AM EDT 8:23 PM EDT
Civil Twilight 6:39 AM EDT 8:52 PM EDT
Nautical Twilight 6:05 AM EDT 9:27 PM EDT
Astronomical Twilight 5:29 AM EDT 10:03 PM EDT
Moon 7:00 PM EDT (4/13) 6:08 AM EDT (4/13)
Length of Visible Light 14h 12m
Length of Day
13h 15m
Waxing Gibbous, 97% of the Moon is Illuminated
Apr 13
Waxing Gibbous
Apr 15
Full
Apr 22
Last Quarter
Apr 29
New
May 6
First Quarter

Hourly Weather History & Observations

Time (EDT) Temp. Dew Point Humidity Pressure Visibility Wind Dir Wind Speed Gust Speed Precip Events Conditions
12:54 AM 66.0 °F 51.1 °F 59% 29.75 in 10.0 mi SSE 10.4 mph - N/A   Mostly Cloudy
1:54 AM 62.1 °F 51.1 °F 67% 29.77 in 10.0 mi ESE 8.1 mph - N/A   Overcast
2:54 AM 63.0 °F 51.1 °F 65% 29.76 in 10.0 mi SSE 9.2 mph - N/A   Mostly Cloudy
3:54 AM 62.1 °F 51.1 °F 67% 29.75 in 10.0 mi South 9.2 mph - N/A   Mostly Cloudy
4:54 AM 64.0 °F 52.0 °F 65% 29.72 in 10.0 mi SSW 16.1 mph - N/A   Overcast
5:54 AM 64.0 °F 52.0 °F 65% 29.73 in 10.0 mi SSW 16.1 mph 24.2 mph N/A   Overcast
6:54 AM 63.0 °F 53.1 °F 70% 29.71 in 10.0 mi SSW 15.0 mph - N/A   Mostly Cloudy
7:54 AM 63.0 °F 53.1 °F 70% 29.71 in 10.0 mi SSW 16.1 mph - N/A   Clear
8:54 AM 64.9 °F 54.0 °F 68% 29.73 in 10.0 mi SSW 18.4 mph 29.9 mph N/A   Clear
9:54 AM 66.0 °F 54.0 °F 65% 29.73 in 10.0 mi SW 15.0 mph 29.9 mph N/A   Partly Cloudy
10:54 AM 70.0 °F 55.0 °F 59% 29.75 in 10.0 mi SW 23.0 mph 32.2 mph N/A   Mostly Cloudy
11:54 AM 70.0 °F 55.0 °F 59% 29.75 in 10.0 mi SW 18.4 mph - N/A   Overcast
12:54 PM 71.1 °F 55.9 °F 59% 29.76 in 10.0 mi SSW 19.6 mph 26.5 mph N/A   Mostly Cloudy
1:54 PM 70.0 °F 55.9 °F 61% 29.77 in 10.0 mi WSW 16.1 mph 25.3 mph N/A   Mostly Cloudy
2:54 PM 70.0 °F 55.9 °F 61% 29.75 in 10.0 mi SW 10.4 mph - N/A   Overcast
3:54 PM 69.1 °F 55.0 °F 61% 29.74 in 10.0 mi SSW 19.6 mph 27.6 mph N/A   Mostly Cloudy
4:54 PM 68.0 °F 55.9 °F 65% 29.72 in 10.0 mi SSW 21.9 mph 28.8 mph 0.00 in Rain Light Rain
5:54 PM 70.0 °F 55.9 °F 61% 29.68 in 10.0 mi South 9.2 mph - 0.00 in   Overcast
6:54 PM 69.1 °F 57.0 °F 65% 29.67 in 8.0 mi SSW 16.1 mph 25.3 mph 0.00 in Rain Light Rain
7:54 PM 66.0 °F 57.9 °F 75% 29.64 in 10.0 mi South 16.1 mph 26.5 mph 0.01 in   Overcast
8:26 PM 64.0 °F 59.0 °F 84% 29.62 in 4.0 mi South 18.4 mph 35.7 mph 0.03 in Rain , Thunderstorm Heavy Thunderstorms and Rain
8:38 PM 64.0 °F 59.0 °F 84% 29.62 in 10.0 mi South 16.1 mph 26.5 mph 0.04 in Rain Light Rain
8:54 PM 64.0 °F 59.0 °F 84% 29.62 in 10.0 mi South 13.8 mph - 0.04 in   Scattered Clouds
9:54 PM 64.9 °F 57.9 °F 78% 29.62 in 10.0 mi South 12.7 mph - 0.00 in   Overcast
10:54 PM 66.0 °F 55.9 °F 70% 29.59 in 10.0 mi South 12.7 mph - 0.00 in Rain Light Rain
11:54 PM 66.9 °F 55.9 °F 68% 29.55 in 10.0 mi South 12.7 mph - 0.00 in   Mostly Cloudy